Time,TemperatureF,DewpointF,PressureIn,WindDirection,WindDirectionDegrees,WindSpeedMPH,WindSpeedGustMPH,Humidity,HourlyPrecipIn,Conditions,Clouds,dailyrainin,SoftwareType,DateUTC
2013-01-10 00:00:00,44.4,17.8,32.40,NNW,332,3.0,4.0,34,0.00,NA,NA,-99.99,wxupload 3.4,2013-01-10 05:00:00,
2013-01-10 00:04:00,44.4,17.8,32.43,WNW,292,0.0,3.0,34,0.00,NA,NA,-99.99,wxupload 3.4,2013-01-10 05:04:00,
2013-01-10 00:06:00,44.2,17.6,32.43,North,4,3.0,6.0,34,0.00,NA,NA,-99.99,wxupload 3.4,2013-01-10 05:06:00,
2013-01-10 00:08:00,44.6,18.0,32.43,North,353,0.0,5.0,34,0.00,NA,NA,-99.99,wxupload 3.4,2013-01-10 05:08:00,
2013-01-10 00:14:00,44.2,16.9,32.43,NNE,19,3.0,5.0,33,0.00,NA,NA,-99.99,wxupload 3.4,2013-01-10 05:14:00,
2013-01-10 00:20:00,43.9,16.6,32.43,North,3,3.0,4.0,33,0.00,NA,NA,-99.99,wxupload 3.4,2013-01-10 05:20:00,
2013-01-10 00:26:00,43.5,17.0,32.43,SE,124,0.0,0.0,34,0.00,NA,NA,-99.99,wxupload 3.4,2013-01-10 05:26:00,
2013-01-10 00:32:00,42.4,16.7,32.43,NE,49,0.0,0.0,35,0.00,NA,NA,-99.99,wxupload 3.4,2013-01-10 05:32:00,
2013-01-10 00:38:00,42.4,17.3,32.43,NW,311,0.0,0.0,36,0.00,NA,NA,-99.99,wxupload 3.4,2013-01-10 05:38:00,
2013-01-10 00:44:00,43.0,17.2,32.43,SSW,197,0.0,0.0,35,0.00,NA,NA,-99.99,wxupload 3.4,2013-01-10 05:44:00,
2013-01-10 00:50:00,43.0,17.2,32.43,NNW,345,0.0,0.0,35,0.00,NA,NA,-99.99,wxupload 3.4,2013-01-10 05:50:00,
2013-01-10 00:56:00,43.2,17.3,32.43,NE,54,0.0,0.0,35,0.00,NA,NA,-99.99,wxupload 3.4,2013-01-10 05:56:00,
2013-01-10 01:02:00,42.4,17.3,32.43,NNW,340,0.0,3.0,36,0.00,NA,NA,-99.99,wxupload 3.4,2013-01-10 06:02:00,
2013-01-10 01:08:00,42.4,17.3,32.43,NNW,339,0.0,0.0,36,0.00,NA,NA,-99.99,wxupload 3.4,2013-01-10 06:08:00,
2013-01-10 01:14:00,42.4,18.0,32.43,NE,55,0.0,8.0,37,0.00,NA,NA,-99.99,wxupload 3.4,2013-01-10 06:14:00,
2013-01-10 01:20:00,42.8,17.7,32.43,North,353,4.0,4.0,36,0.00,NA,NA,-99.99,wxupload 3.4,2013-01-10 06:20:00,
2013-01-10 01:26:00,42.6,18.1,32.43,NNW,339,2.0,4.0,37,0.00,NA,NA,-99.99,wxupload 3.4,2013-01-10 06:26:00,
2013-01-10 01:32:00,42.6,17.5,32.43,NW,306,0.0,8.0,36,0.00,NA,NA,-99.99,wxupload 3.4,2013-01-10 06:32:00,
2013-01-10 01:38:00,42.3,17.2,32.43,NNE,28,0.0,3.0,36,0.00,NA,NA,-99.99,wxupload 3.4,2013-01-10 06:38:00,
2013-01-10 01:44:00,42.1,17.0,32.43,WNW,290,0.0,0.0,36,0.00,NA,NA,-99.99,wxupload 3.4,2013-01-10 06:44:00,
2013-01-10 01:50:00,41.4,17.0,32.46,NW,324,0.0,0.0,37,0.00,NA,NA,-99.99,wxupload 3.4,2013-01-10 06:50:00,
2013-01-10 01:56:00,41.2,17.5,32.46,SW,232,0.0,0.0,38,0.00,NA,NA,-99.99,wxupload 3.4,2013-01-10 06:56:00,
2013-01-10 02:02:00,41.2,17.5,32.46,NNW,337,0.0,0.0,38,0.00,NA,NA,-99.99,wxupload 3.4,2013-01-10 07:02:00,
2013-01-10 02:08:00,42.1,17.7,32.46,WNW,300,0.0,4.0,37,0.00,NA,NA,-99.99,wxupload 3.4,2013-01-10 07:08:00,
2013-01-10 02:14:00,42.1,16.4,32.46,NNE,20,4.0,6.0,35,0.00,NA,NA,-99.99,wxupload 3.4,2013-01-10 07:14:00,
2013-01-10 02:20:00,42.3,16.5,32.46,North,0,0.0,4.0,35,0.00,NA,NA,-99.99,wxupload 3.4,2013-01-10 07:20:00,
2013-01-10 02:26:00,42.6,16.2,32.46,North,0,5.0,7.0,34,0.00,NA,NA,-99.99,wxupload 3.4,2013-01-10 07:26:00,
2013-01-10 02:32:00,43.5,15.6,32.46,NE,41,3.0,7.0,32,0.00,NA,NA,-99.99,wxupload 3.4,2013-01-10 07:32:00,
2013-01-10 02:38:00,42.8,15.6,32.46,WNW,289,0.0,6.0,33,0.00,NA,NA,-99.99,wxupload 3.4,2013-01-10 07:38:00,
2013-01-10 02:44:00,42.4,15.3,32.46,NW,322,0.0,3.0,33,0.00,NA,NA,-99.99,wxupload 3.4,2013-01-10 07:44:00,
2013-01-10 02:50:00,42.3,15.2,32.46,NNW,340,4.0,4.0,33,0.00,NA,NA,-99.99,wxupload 3.4,2013-01-10 07:50:00,
2013-01-10 02:56:00,42.1,15.0,32.46,NNE,18,0.0,7.0,33,0.00,NA,NA,-99.99,wxupload 3.4,2013-01-10 07:56:00,
2013-01-10 03:02:00,41.9,15.5,32.46,NW,324,0.0,4.0,34,0.00,NA,NA,-99.99,wxupload 3.4,2013-01-10 08:02:00,
2013-01-10 03:08:00,41.7,15.4,32.46,NNW,345,0.0,0.0,34,0.00,NA,NA,-99.99,wxupload 3.4,2013-01-10 08:08:00,
2013-01-10 03:14:00,41.7,14.7,32.46,NNW,343,3.0,4.0,33,0.00,NA,NA,-99.99,wxupload 3.4,2013-01-10 08:14:00,
2013-01-10 03:20:00,41.7,14.7,32.46,NE,45,0.0,3.0,33,0.00,NA,NA,-99.99,wxupload 3.4,2013-01-10 08:20:00,
2013-01-10 03:26:00,41.7,14.7,32.46,North,5,0.0,0.0,33,0.00,NA,NA,-99.99,wxupload 3.4,2013-01-10 08:26:00,
2013-01-10 03:32:00,41.2,14.2,32.46,NNW,333,2.0,4.0,33,0.00,NA,NA,-99.99,wxupload 3.4,2013-01-10 08:32:00,
2013-01-10 03:38:00,41.5,14.5,32.46,NNE,26,2.0,7.0,33,0.00,NA,NA,-99.99,wxupload 3.4,2013-01-10 08:38:00,
2013-01-10 03:44:00,42.3,14.4,32.46,NNE,33,2.0,4.0,32,0.00,NA,NA,-99.99,wxupload 3.4,2013-01-10 08:44:00,
2013-01-10 03:50:00,42.1,14.3,32.46,NE,42,0.0,0.0,32,0.00,NA,NA,-99.99,wxupload 3.4,2013-01-10 08:50:00,
2013-01-10 03:56:00,41.9,14.1,32.46,NW,316,0.0,0.0,32,0.00,NA,NA,-99.99,wxupload 3.4,2013-01-10 08:56:00,
2013-01-10 04:02:00,41.7,14.0,32.46,NNE,27,0.0,4.0,32,0.00,NA,NA,-99.99,wxupload 3.4,2013-01-10 09:02:00,
2013-01-10 04:08:00,41.5,13.8,32.46,North,353,0.0,4.0,32,0.00,NA,NA,-99.99,wxupload 3.4,2013-01-10 09:08:00,
2013-01-10 04:14:00,41.2,13.5,32.46,East,97,0.0,0.0,32,0.00,NA,NA,-99.99,wxupload 3.4,2013-01-10 09:14:00,
2013-01-10 04:20:00,40.8,13.2,32.46,WNW,301,0.0,4.0,32,0.00,NA,NA,-99.99,wxupload 3.4,2013-01-10 09:20:00,
2013-01-10 04:26:00,40.6,13.0,32.46,NE,41,3.0,4.0,32,0.00,NA,NA,-99.99,wxupload 3.4,2013-01-10 09:26:00,
2013-01-10 04:32:00,40.5,12.8,32.46,SE,131,0.0,0.0,32,0.00,NA,NA,-99.99,wxupload 3.4,2013-01-10 09:32:00,
2013-01-10 04:38:00,39.7,12.9,32.46,SE,142,0.0,0.0,33,0.00,NA,NA,-99.99,wxupload 3.4,2013-01-10 09:38:00,
2013-01-10 04:44:00,39.7,12.9,32.46,NE,49,5.0,8.0,33,0.00,NA,NA,-99.99,wxupload 3.4,2013-01-10 09:44:00,
2013-01-10 04:50:00,41.0,13.3,32.46,NNW,338,0.0,0.0,32,0.00,NA,NA,-99.99,wxupload 3.4,2013-01-10 09:50:00,
2013-01-10 04:56:00,40.8,13.2,32.46,NE,41,0.0,0.0,32,0.00,NA,NA,-99.99,wxupload 3.4,2013-01-10 09:56:00,
2013-01-10 05:02:00,40.8,13.2,32.46,NE,43,0.0,0.0,32,0.00,NA,NA,-99.99,wxupload 3.4,2013-01-10 10:02:00,
2013-01-10 05:08:00,41.0,13.3,32.46,ENE,63,0.0,0.0,32,0.00,NA,NA,-99.99,wxupload 3.4,2013-01-10 10:08:00,
2013-01-10 05:14:00,40.6,13.0,32.46,NE,43,0.0,0.0,32,0.00,NA,NA,-99.99,wxupload 3.4,2013-01-10 10:14:00,
2013-01-10 05:20:00,40.3,13.4,32.46,North,0,0.0,0.0,33,0.00,NA,NA,-99.99,wxupload 3.4,2013-01-10 10:20:00,
2013-01-10 05:26:00,40.3,13.4,32.46,North,357,2.0,4.0,33,0.00,NA,NA,-99.99,wxupload 3.4,2013-01-10 10:26:00,
2013-01-10 05:32:00,40.3,13.4,32.49,NE,51,0.0,0.0,33,0.00,NA,NA,-99.99,wxupload 3.4,2013-01-10 10:32:00,
2013-01-10 05:38:00,40.1,13.2,32.49,NNW,333,0.0,2.0,33,0.00,NA,NA,-99.99,wxupload 3.4,2013-01-10 10:38:00,
2013-01-10 05:44:00,39.6,12.7,32.49,NNW,336,0.0,0.0,33,0.00,NA,NA,-99.99,wxupload 3.4,2013-01-10 10:44:00,
2013-01-10 05:50:00,38.8,12.8,32.49,NNW,336,0.0,0.0,34,0.00,NA,NA,-99.99,wxupload 3.4,2013-01-10 10:50:00,
2013-01-10 05:56:00,38.1,12.8,32.49,South,174,0.0,0.0,35,0.00,NA,NA,-99.99,wxupload 3.4,2013-01-10 10:56:00,
2013-01-10 06:02:00,37.8,13.1,32.49,South,175,0.0,0.0,36,0.00,NA,NA,-99.99,wxupload 3.4,2013-01-10 11:02:00,
2013-01-10 06:08:00,37.6,13.6,32.49,South,174,0.0,0.0,37,0.00,NA,NA,-99.99,wxupload 3.4,2013-01-10 11:08:00,
2013-01-10 06:14:00,37.8,14.4,32.49,NE,48,0.0,0.0,38,0.00,NA,NA,-99.99,wxupload 3.4,2013-01-10 11:14:00,
2013-01-10 06:20:00,37.4,14.0,32.49,NE,48,0.0,0.0,38,0.00,NA,NA,-99.99,wxupload 3.4,2013-01-10 11:20:00,
2013-01-10 06:26:00,37.2,14.5,32.49,NE,48,0.0,0.0,39,0.00,NA,NA,-99.99,wxupload 3.4,2013-01-10 11:26:00,
2013-01-10 06:32:00,36.9,14.1,32.49,NE,48,0.0,0.0,39,0.00,NA,NA,-99.99,wxupload 3.4,2013-01-10 11:32:00,
2013-01-10 06:38:00,36.7,14.6,32.49,NE,48,0.0,0.0,40,0.00,NA,NA,-99.99,wxupload 3.4,2013-01-10 11:38:00,
2013-01-10 06:44:00,36.3,14.2,32.49,NE,48,0.0,0.0,40,0.00,NA,NA,-99.99,wxupload 3.4,2013-01-10 11:44:00,
2013-01-10 06:50:00,36.1,14.1,32.51,NE,48,0.0,0.0,40,0.00,NA,NA,-99.99,wxupload 3.4,2013-01-10 11:50:00,
2013-01-10 06:56:00,35.8,13.7,32.51,NE,48,0.0,0.0,40,0.00,NA,NA,-99.99,wxupload 3.4,2013-01-10 11:56:00,
2013-01-10 07:02:00,35.6,13.6,32.54,NE,48,0.0,0.0,40,0.00,NA,NA,-99.99,wxupload 3.4,2013-01-10 12:02:00,
2013-01-10 07:08:00,35.4,14.0,32.54,NE,48,0.0,0.0,41,0.00,NA,NA,-99.99,wxupload 3.4,2013-01-10 12:08:00,
2013-01-10 07:14:00,35.2,13.8,32.54,NE,48,0.0,0.0,41,0.00,NA,NA,-99.99,wxupload 3.4,2013-01-10 12:14:00,
2013-01-10 07:20:00,35.2,13.8,32.54,NE,48,0.0,0.0,41,0.00,NA,NA,-99.99,wxupload 3.4,2013-01-10 12:20:00,
2013-01-10 07:26:00,35.1,14.2,32.54,NE,48,0.0,0.0,42,0.00,NA,NA,-99.99,wxupload 3.4,2013-01-10 12:26:00,
2013-01-10 07:32:00,34.9,14.0,32.54,NE,48,0.0,0.0,42,0.00,NA,NA,-99.99,wxupload 3.4,2013-01-10 12:32:00,
2013-01-10 07:38:00,34.7,13.9,32.54,East,100,0.0,0.0,42,0.00,NA,NA,-99.99,wxupload 3.4,2013-01-10 12:38:00,
2013-01-10 07:44:00,34.5,13.7,32.54,WNW,299,0.0,0.0,42,0.00,NA,NA,-99.99,wxupload 3.4,2013-01-10 12:44:00,
2013-01-10 07:50:00,34.5,13.7,32.54,West,259,0.0,0.0,42,0.00,NA,NA,-99.99,wxupload 3.4,2013-01-10 12:50:00,
2013-01-10 07:56:00,34.5,14.2,32.54,West,259,0.0,0.0,43,0.00,NA,NA,-99.99,wxupload 3.4,2013-01-10 12:56:00,
2013-01-10 08:02:00,34.5,14.2,32.57,West,259,0.0,0.0,43,0.00,NA,NA,-99.99,wxupload 3.4,2013-01-10 13:02:00,
2013-01-10 08:08:00,34.3,14.1,32.57,West,259,0.0,0.0,43,0.00,NA,NA,-99.99,wxupload 3.4,2013-01-10 13:08:00,
2013-01-10 08:14:00,34.5,14.2,32.57,West,259,0.0,0.0,43,0.00,NA,NA,-99.99,wxupload 3.4,2013-01-10 13:14:00,
2013-01-10 08:20:00,34.7,14.4,32.57,West,259,0.0,0.0,43,0.00,NA,NA,-99.99,wxupload 3.4,2013-01-10 13:20:00,
2013-01-10 08:26:00,34.9,15.1,32.57,West,259,0.0,0.0,44,0.00,NA,NA,-99.99,wxupload 3.4,2013-01-10 13:26:00,
2013-01-10 08:32:00,35.1,15.3,32.57,South,184,0.0,0.0,44,0.00,NA,NA,-99.99,wxupload 3.4,2013-01-10 13:32:00,
2013-01-10 08:38:00,35.1,15.3,32.57,South,184,0.0,0.0,44,0.00,NA,NA,-99.99,wxupload 3.4,2013-01-10 13:38:00,
2013-01-10 08:44:00,34.9,15.1,32.57,South,184,0.0,0.0,44,0.00,NA,NA,-99.99,wxupload 3.4,2013-01-10 13:44:00,
2013-01-10 08:50:00,34.7,14.9,32.57,South,184,0.0,0.0,44,0.00,NA,NA,-99.99,wxupload 3.4,2013-01-10 13:50:00,
2013-01-10 08:56:00,34.9,15.6,32.57,South,184,0.0,0.0,45,0.00,NA,NA,-99.99,wxupload 3.4,2013-01-10 13:56:00,
2013-01-10 09:02:00,34.9,15.6,32.57,SSE,167,0.0,0.0,45,0.00,NA,NA,-99.99,wxupload 3.4,2013-01-10 14:02:00,
2013-01-10 09:08:00,35.4,16.6,32.57,SSE,168,0.0,0.0,46,0.00,NA,NA,-99.99,wxupload 3.4,2013-01-10 14:08:00,
2013-01-10 09:14:00,36.0,17.1,32.57,SSE,168,0.0,0.0,46,0.00,NA,NA,-99.99,wxupload 3.4,2013-01-10 14:14:00,
2013-01-10 09:20:00,36.7,17.8,32.57,ENE,71,0.0,0.0,46,0.00,NA,NA,-99.99,wxupload 3.4,2013-01-10 14:20:00,
2013-01-10 09:26:00,37.8,16.7,32.57,NE,44,0.0,0.0,42,0.00,NA,NA,-99.99,wxupload 3.4,2013-01-10 14:26:00,
2013-01-10 09:32:00,39.4,16.4,32.57,NE,46,0.0,0.0,39,0.00,NA,NA,-99.99,wxupload 3.4,2013-01-10 14:32:00,
2013-01-10 09:38:00,40.3,16.6,32.57,NE,44,0.0,0.0,38,0.00,NA,NA,-99.99,wxupload 3.4,2013-01-10 14:38:00,
2013-01-10 09:44:00,40.6,15.7,32.57,NE,51,0.0,6.0,36,0.00,NA,NA,-99.99,wxupload 3.4,2013-01-10 14:44:00,
2013-01-10 09:50:00,41.2,14.9,32.60,NE,39,0.0,3.0,34,0.00,NA,NA,-99.99,wxupload 3.4,2013-01-10 14:50:00,
2013-01-10 09:56:00,41.9,15.5,32.60,NE,41,0.0,0.0,34,0.00,NA,NA,-99.99,wxupload 3.4,2013-01-10 14:56:00,
2013-01-10 10:02:00,42.3,15.2,32.60,North,357,0.0,0.0,33,0.00,NA,NA,-99.99,wxupload 3.4,2013-01-10 15:02:00,
2013-01-10 10:08:00,42.8,14.9,32.60,NE,45,0.0,6.0,32,0.00,NA,NA,-99.99,wxupload 3.4,2013-01-10 15:08:00,
2013-01-10 10:14:00,43.3,14.7,32.60,WNW,297,0.0,0.0,31,0.00,NA,NA,-99.99,wxupload 3.4,2013-01-10 15:14:00,
2013-01-10 10:20:00,43.3,15.4,32.60,NNE,14,0.0,0.0,32,0.00,NA,NA,-99.99,wxupload 3.4,2013-01-10 15:20:00,
2013-01-10 10:26:00,43.7,15.0,32.60,WNW,303,0.0,0.0,31,0.00,NA,NA,-99.99,wxupload 3.4,2013-01-10 15:26:00,
2013-01-10 10:32:00,43.7,15.7,32.60,WNW,299,0.0,0.0,32,0.00,NA,NA,-99.99,wxupload 3.4,2013-01-10 15:32:00,
2013-01-10 10:38:00,44.1,15.3,32.60,WNW,299,0.0,0.0,31,0.00,NA,NA,-99.99,wxupload 3.4,2013-01-10 15:38:00,
2013-01-10 10:44:00,43.7,15.0,32.60,NNW,337,0.0,0.0,31,0.00,NA,NA,-99.99,wxupload 3.4,2013-01-10 15:44:00,
2013-01-10 10:50:00,43.7,15.0,32.60,NW,310,0.0,0.0,31,0.00,NA,NA,-99.99,wxupload 3.4,2013-01-10 15:50:00,
2013-01-10 10:56:00,44.2,15.5,32.60,NE,39,0.0,0.0,31,0.00,NA,NA,-99.99,wxupload 3.4,2013-01-10 15:56:00,
2013-01-10 11:02:00,44.8,16.0,32.57,NNE,25,0.0,0.0,31,0.00,NA,NA,-99.99,wxupload 3.4,2013-01-10 16:02:00,
2013-01-10 11:08:00,45.9,16.2,32.57,NE,39,0.0,0.0,30,0.00,NA,NA,-99.99,wxupload 3.4,2013-01-10 16:08:00,
2013-01-10 11:14:00,45.7,16.0,32.57,West,272,0.0,0.0,30,0.00,NA,NA,-99.99,wxupload 3.4,2013-01-10 16:14:00,
2013-01-10 11:20:00,45.5,15.8,32.57,SSE,156,0.0,0.0,30,0.00,NA,NA,-99.99,wxupload 3.4,2013-01-10 16:20:00,
2013-01-10 11:26:00,45.3,15.7,32.57,East,79,0.0,0.0,30,0.00,NA,NA,-99.99,wxupload 3.4,2013-01-10 16:26:00,
2013-01-10 11:32:00,46.0,16.3,32.57,SE,139,0.0,0.0,30,0.00,NA,NA,-99.99,wxupload 3.4,2013-01-10 16:32:00,
2013-01-10 11:38:00,46.6,16.0,32.57,NE,39,0.0,3.0,29,0.00,NA,NA,-99.99,wxupload 3.4,2013-01-10 16:38:00,
2013-01-10 11:44:00,46.8,16.2,32.57,ENE,75,0.0,0.0,29,0.00,NA,NA,-99.99,wxupload 3.4,2013-01-10 16:44:00,
2013-01-10 11:50:00,47.5,16.0,32.54,NE,36,0.0,0.0,28,0.00,NA,NA,-99.99,wxupload 3.4,2013-01-10 16:50:00,
2013-01-10 11:56:00,47.7,16.1,32.54,NNE,25,0.0,0.0,28,0.00,NA,NA,-99.99,wxupload 3.4,2013-01-10 16:56:00,
2013-01-10 12:02:00,47.8,16.3,32.54,North,357,0.0,0.0,28,0.00,NA,NA,-99.99,wxupload 3.4,2013-01-10 17:02:00,
2013-01-10 12:08:00,48.4,16.8,32.54,ENE,68,0.0,0.0,28,0.00,NA,NA,-99.99,wxupload 3.4,2013-01-10 17:08:00,
2013-01-10 12:14:00,48.6,16.9,32.54,WNW,287,0.0,0.0,28,0.00,NA,NA,-99.99,wxupload 3.4,2013-01-10 17:14:00,
2013-01-10 12:20:00,48.6,16.9,32.54,NE,41,0.0,0.0,28,0.00,NA,NA,-99.99,wxupload 3.4,2013-01-10 17:20:00,
2013-01-10 12:26:00,48.7,17.1,32.54,East,85,0.0,0.0,28,0.00,NA,NA,-99.99,wxupload 3.4,2013-01-10 17:26:00,
2013-01-10 12:32:00,48.7,17.1,32.54,East,95,0.0,0.0,28,0.00,NA,NA,-99.99,wxupload 3.4,2013-01-10 17:32:00,
2013-01-10 12:38:00,49.1,17.4,32.54,South,185,0.0,0.0,28,0.00,NA,NA,-99.99,wxupload 3.4,2013-01-10 17:38:00,
2013-01-10 12:44:00,50.2,17.5,32.54,ENE,66,0.0,0.0,27,0.00,NA,NA,-99.99,wxupload 3.4,2013-01-10 17:44:00,
2013-01-10 12:50:00,50.2,17.5,32.54,North,0,0.0,0.0,27,0.00,NA,NA,-99.99,wxupload 3.4,2013-01-10 17:50:00,
2013-01-10 12:56:00,49.8,17.2,32.54,NNE,31,0.0,3.0,27,0.00,NA,NA,-99.99,wxupload 3.4,2013-01-10 17:56:00,
2013-01-10 13:02:00,50.0,17.4,32.54,NNE,16,0.0,3.0,27,0.00,NA,NA,-99.99,wxupload 3.4,2013-01-10 18:02:00,
2013-01-10 13:08:00,51.1,17.4,32.54,NNE,19,2.0,4.0,26,0.00,NA,NA,-99.99,wxupload 3.4,2013-01-10 18:08:00,
2013-01-10 13:14:00,51.4,17.7,32.54,North,6,0.0,0.0,26,0.00,NA,NA,-99.99,wxupload 3.4,2013-01-10 18:14:00,
2013-01-10 13:20:00,51.3,17.6,32.51,NNE,31,0.0,3.0,26,0.00,NA,NA,-99.99,wxupload 3.4,2013-01-10 18:20:00,
2013-01-10 13:26:00,50.9,17.3,32.51,ENE,74,0.0,0.0,26,0.00,NA,NA,-99.99,wxupload 3.4,2013-01-10 18:26:00,
2013-01-10 13:32:00,50.5,17.8,32.51,ENE,60,0.0,0.0,27,0.00,NA,NA,-99.99,wxupload 3.4,2013-01-10 18:32:00,
2013-01-10 13:38:00,51.3,17.6,32.51,North,353,0.0,0.0,26,0.00,NA,NA,-99.99,wxupload 3.4,2013-01-10 18:38:00,
2013-01-10 13:44:00,52.0,18.2,32.51,East,100,0.0,4.0,26,0.00,NA,NA,-99.99,wxupload 3.4,2013-01-10 18:44:00,
2013-01-10 13:50:00,52.0,18.2,32.51,NNW,337,0.0,3.0,26,0.00,NA,NA,-99.99,wxupload 3.4,2013-01-10 18:50:00,
2013-01-10 13:56:00,51.8,18.0,32.51,ESE,108,0.0,0.0,26,0.00,NA,NA,-99.99,wxupload 3.4,2013-01-10 18:56:00,
2013-01-10 14:02:00,51.3,17.6,32.51,ESE,120,0.0,3.0,26,0.00,NA,NA,-99.99,wxupload 3.4,2013-01-10 19:02:00,
2013-01-10 14:08:00,50.9,17.3,32.51,NE,43,3.0,3.0,26,0.00,NA,NA,-99.99,wxupload 3.4,2013-01-10 19:08:00,
2013-01-10 14:14:00,50.4,16.8,32.51,East,91,0.0,0.0,26,0.00,NA,NA,-99.99,wxupload 3.4,2013-01-10 19:14:00,
2013-01-10 14:20:00,50.2,16.6,32.51,NNE,18,0.0,2.0,26,0.00,NA,NA,-99.99,wxupload 3.4,2013-01-10 19:20:00,
2013-01-10 14:26:00,50.2,16.6,32.51,SSE,147,2.0,3.0,26,0.00,NA,NA,-99.99,wxupload 3.4,2013-01-10 19:26:00,
2013-01-10 14:32:00,49.8,17.2,32.51,SE,132,0.0,0.0,27,0.00,NA,NA,-99.99,wxupload 3.4,2013-01-10 19:32:00,
2013-01-10 14:38:00,49.3,16.7,32.51,East,82,0.0,0.0,27,0.00,NA,NA,-99.99,wxupload 3.4,2013-01-10 19:38:00,
2013-01-10 14:44:00,48.7,16.2,32.51,East,87,0.0,3.0,27,0.00,NA,NA,-99.99,wxupload 3.4,2013-01-10 19:44:00,
2013-01-10 14:50:00,48.4,15.9,32.51,ESE,108,0.0,0.0,27,0.00,NA,NA,-99.99,wxupload 3.4,2013-01-10 19:50:00,
2013-01-10 14:56:00,48.4,15.9,32.51,SSE,162,0.0,0.0,27,0.00,NA,NA,-99.99,wxupload 3.4,2013-01-10 19:56:00,
2013-01-10 15:02:00,48.2,15.8,32.51,East,91,0.0,0.0,27,0.00,NA,NA,-99.99,wxupload 3.4,2013-01-10 20:02:00,
2013-01-10 15:08:00,48.4,15.9,32.51,ENE,77,0.0,0.0,27,0.00,NA,NA,-99.99,wxupload 3.4,2013-01-10 20:08:00,
2013-01-10 15:14:00,48.6,16.1,32.51,SE,132,0.0,3.0,27,0.00,NA,NA,-99.99,wxupload 3.4,2013-01-10 20:14:00,
2013-01-10 15:20:00,47.8,16.3,32.49,East,89,0.0,0.0,28,0.00,NA,NA,-99.99,wxupload 3.4,2013-01-10 20:20:00,
2013-01-10 15:26:00,47.7,16.1,32.49,East,101,0.0,3.0,28,0.00,NA,NA,-99.99,wxupload 3.4,2013-01-10 20:26:00,
2013-01-10 15:32:00,47.8,16.3,32.51,SE,130,0.0,0.0,28,0.00,NA,NA,-99.99,wxupload 3.4,2013-01-10 20:32:00,
2013-01-10 15:38:00,48.2,16.6,32.51,ESE,113,0.0,0.0,28,0.00,NA,NA,-99.99,wxupload 3.4,2013-01-10 20:38:00,
2013-01-10 15:44:00,48.0,16.5,32.51,ESE,119,0.0,0.0,28,0.00,NA,NA,-99.99,wxupload 3.4,2013-01-10 20:44:00,
2013-01-10 15:50:00,47.3,15.8,32.51,East,100,0.0,0.0,28,0.00,NA,NA,-99.99,wxupload 3.4,2013-01-10 20:50:00,
2013-01-10 15:56:00,47.7,16.1,32.51,East,95,0.0,0.0,28,0.00,NA,NA,-99.99,wxupload 3.4,2013-01-10 20:56:00,
2013-01-10 16:02:00,47.5,16.0,32.51,ESE,110,0.0,0.0,28,0.00,NA,NA,-99.99,wxupload 3.4,2013-01-10 21:02:00,
2013-01-10 16:08:00,47.3,15.8,32.51,ESE,102,0.0,0.0,28,0.00,NA,NA,-99.99,wxupload 3.4,2013-01-10 21:08:00,
2013-01-10 16:14:00,46.8,15.4,32.51,ESE,106,0.0,0.0,28,0.00,NA,NA,-99.99,wxupload 3.4,2013-01-10 21:14:00,
2013-01-10 16:20:00,46.0,15.5,32.51,SE,126,0.0,0.0,29,0.00,NA,NA,-99.99,wxupload 3.4,2013-01-10 21:20:00,
2013-01-10 16:26:00,45.5,15.1,32.51,ESE,123,0.0,2.0,29,0.00,NA,NA,-99.99,wxupload 3.4,2013-01-10 21:26:00,
2013-01-10 16:32:00,45.5,15.8,32.51,South,169,0.0,0.0,30,0.00,NA,NA,-99.99,wxupload 3.4,2013-01-10 21:32:00,
2013-01-10 16:38:00,45.3,15.7,32.51,SSE,168,0.0,0.0,30,0.00,NA,NA,-99.99,wxupload 3.4,2013-01-10 21:38:00,
2013-01-10 16:44:00,45.0,16.1,32.51,South,180,0.0,0.0,31,0.00,NA,NA,-99.99,wxupload 3.4,2013-01-10 21:44:00,
2013-01-10 16:50:00,45.0,16.1,32.51,SSE,161,0.0,0.0,31,0.00,NA,NA,-99.99,wxupload 3.4,2013-01-10 21:50:00,
2013-01-10 16:56:00,44.8,16.0,32.51,SSE,162,0.0,0.0,31,0.00,NA,NA,-99.99,wxupload 3.4,2013-01-10 21:56:00,
2013-01-10 17:02:00,44.4,16.4,32.51,SSE,165,0.0,0.0,32,0.00,NA,NA,-99.99,wxupload 3.4,2013-01-10 22:02:00,
2013-01-10 17:08:00,44.1,16.8,32.51,SE,138,0.0,0.0,33,0.00,NA,NA,-99.99,wxupload 3.4,2013-01-10 22:08:00,
2013-01-10 17:14:00,43.9,16.6,32.51,SE,137,0.0,0.0,33,0.00,NA,NA,-99.99,wxupload 3.4,2013-01-10 22:14:00,
2013-01-10 17:20:00,43.5,17.0,32.51,SE,146,0.0,0.0,34,0.00,NA,NA,-99.99,wxupload 3.4,2013-01-10 22:20:00,
2013-01-10 17:26:00,43.3,16.8,32.51,ESE,123,0.0,0.0,34,0.00,NA,NA,-99.99,wxupload 3.4,2013-01-10 22:26:00,
2013-01-10 17:34:00,43.2,17.3,32.51,SE,133,0.0,0.0,35,0.00,NA,NA,-99.99,wxupload 3.4,2013-01-10 22:34:00,
2013-01-10 17:40:00,43.2,17.3,32.51,SW,220,0.0,0.0,35,0.00,NA,NA,-99.99,wxupload 3.4,2013-01-10 22:40:00,
2013-01-10 17:46:00,43.0,16.5,32.51,SW,219,0.0,0.0,34,0.00,NA,NA,-99.99,wxupload 3.4,2013-01-10 22:46:00,
2013-01-10 17:52:00,42.8,16.3,32.54,SW,219,0.0,0.0,34,0.00,NA,NA,-99.99,wxupload 3.4,2013-01-10 22:52:00,
2013-01-10 17:58:00,42.8,17.0,32.54,SW,219,0.0,0.0,35,0.00,NA,NA,-99.99,wxupload 3.4,2013-01-10 22:58:00,
2013-01-10 18:04:00,43.2,16.7,32.51,SW,219,0.0,0.0,34,0.00,NA,NA,-99.99,wxupload 3.4,2013-01-10 23:04:00,
2013-01-10 18:10:00,43.2,16.0,32.51,ESE,103,0.0,0.0,33,0.00,NA,NA,-99.99,wxupload 3.4,2013-01-10 23:10:00,
2013-01-10 18:16:00,43.0,16.5,32.51,ESE,103,0.0,0.0,34,0.00,NA,NA,-99.99,wxupload 3.4,2013-01-10 23:16:00,
2013-01-10 18:22:00,43.0,16.5,32.54,East,99,0.0,0.0,34,0.00,NA,NA,-99.99,wxupload 3.4,2013-01-10 23:22:00,
2013-01-10 18:30:00,42.8,16.3,32.54,East,100,0.0,0.0,34,0.00,NA,NA,-99.99,wxupload 3.4,2013-01-10 23:30:00,
2013-01-10 18:36:00,42.4,16.7,32.54,East,100,0.0,0.0,35,0.00,NA,NA,-99.99,wxupload 3.4,2013-01-10 23:36:00,
2013-01-10 18:42:00,42.1,17.0,32.54,East,100,0.0,0.0,36,0.00,NA,NA,-99.99,wxupload 3.4,2013-01-10 23:42:00,
2013-01-10 18:50:00,41.9,18.1,32.54,East,100,0.0,0.0,38,0.00,NA,NA,-99.99,wxupload 3.4,2013-01-10 23:50:00,
2013-01-10 18:56:00,41.7,18.0,32.54,East,100,0.0,0.0,38,0.00,NA,NA,-99.99,wxupload 3.4,2013-01-10 23:56:00,
2013-01-10 19:02:00,41.5,17.8,32.54,East,100,0.0,0.0,38,0.00,NA,NA,-99.99,wxupload 3.4,2013-01-11 00:02:00,
2013-01-10 19:08:00,41.4,17.6,32.54,East,100,0.0,0.0,38,0.00,NA,NA,-99.99,wxupload 3.4,2013-01-11 00:08:00,
2013-01-10 19:14:00,41.2,18.1,32.54,East,100,0.0,0.0,39,0.00,NA,NA,-99.99,wxupload 3.4,2013-01-11 00:14:00,
2013-01-10 19:20:00,41.0,17.9,32.54,East,100,0.0,0.0,39,0.00,NA,NA,-99.99,wxupload 3.4,2013-01-11 00:20:00,
2013-01-10 19:26:00,40.6,17.6,32.54,East,100,0.0,0.0,39,0.00,NA,NA,-99.99,wxupload 3.4,2013-01-11 00:26:00,
2013-01-10 19:32:00,40.3,17.3,32.51,East,100,0.0,0.0,39,0.00,NA,NA,-99.99,wxupload 3.4,2013-01-11 00:32:00,
2013-01-10 19:38:00,39.9,16.9,32.51,East,100,0.0,0.0,39,0.00,NA,NA,-99.99,wxupload 3.4,2013-01-11 00:38:00,
2013-01-10 19:44:00,39.6,17.2,32.51,East,100,0.0,0.0,40,0.00,NA,NA,-99.99,wxupload 3.4,2013-01-11 00:44:00,
2013-01-10 19:50:00,39.4,17.0,32.54,East,100,0.0,0.0,40,0.00,NA,NA,-99.99,wxupload 3.4,2013-01-11 00:50:00,
2013-01-10 19:56:00,39.2,16.9,32.54,East,100,0.0,0.0,40,0.00,NA,NA,-99.99,wxupload 3.4,2013-01-11 00:56:00,
2013-01-10 20:02:00,38.8,17.1,32.51,East,100,0.0,0.0,41,0.00,NA,NA,-99.99,wxupload 3.4,2013-01-11 01:02:00,
2013-01-10 20:08:00,38.5,16.8,32.51,East,100,0.0,0.0,41,0.00,NA,NA,-99.99,wxupload 3.4,2013-01-11 01:08:00,
2013-01-10 20:14:00,38.5,16.8,32.51,East,100,0.0,0.0,41,0.00,NA,NA,-99.99,wxupload 3.4,2013-01-11 01:14:00,
2013-01-10 20:20:00,38.3,17.2,32.54,East,100,0.0,0.0,42,0.00,NA,NA,-99.99,wxupload 3.4,2013-01-11 01:20:00,
2013-01-10 20:26:00,38.5,17.3,32.54,East,100,0.0,0.0,42,0.00,NA,NA,-99.99,wxupload 3.4,2013-01-11 01:26:00,
2013-01-10 20:32:00,38.5,17.3,32.51,East,100,0.0,0.0,42,0.00,NA,NA,-99.99,wxupload 3.4,2013-01-11 01:32:00,
2013-01-10 20:38:00,38.1,17.0,32.51,East,100,0.0,0.0,42,0.00,NA,NA,-99.99,wxupload 3.4,2013-01-11 01:38:00,
2013-01-10 20:44:00,37.9,17.4,32.51,East,100,0.0,0.0,43,0.00,NA,NA,-99.99,wxupload 3.4,2013-01-11 01:44:00,
2013-01-10 20:50:00,38.1,17.6,32.51,East,100,0.0,0.0,43,0.00,NA,NA,-99.99,wxupload 3.4,2013-01-11 01:50:00,
2013-01-10 20:56:00,37.9,17.4,32.51,East,100,0.0,0.0,43,0.00,NA,NA,-99.99,wxupload 3.4,2013-01-11 01:56:00,
2013-01-10 21:02:00,37.8,17.2,32.54,East,100,0.0,0.0,43,0.00,NA,NA,-99.99,wxupload 3.4,2013-01-11 02:02:00,
2013-01-10 21:08:00,37.6,17.1,32.54,East,100,0.0,0.0,43,0.00,NA,NA,-99.99,wxupload 3.4,2013-01-11 02:08:00,
2013-01-10 21:14:00,37.6,17.6,32.54,East,100,0.0,0.0,44,0.00,NA,NA,-99.99,wxupload 3.4,2013-01-11 02:14:00,
2013-01-10 21:20:00,37.6,17.6,32.54,East,100,0.0,0.0,44,0.00,NA,NA,-99.99,wxupload 3.4,2013-01-11 02:20:00,
2013-01-10 21:26:00,37.4,17.4,32.54,East,100,0.0,0.0,44,0.00,NA,NA,-99.99,wxupload 3.4,2013-01-11 02:26:00,
2013-01-10 21:31:00,37.4,17.4,32.54,East,100,0.0,0.0,44,0.00,NA,NA,-99.99,wxupload 3.4,2013-01-11 02:31:00,
2013-01-10 21:37:00,37.4,18.0,32.54,East,100,0.0,0.0,45,0.00,NA,NA,-99.99,wxupload 3.4,2013-01-11 02:37:00,
2013-01-10 21:43:00,37.4,18.0,32.54,East,100,0.0,0.0,45,0.00,NA,NA,-99.99,wxupload 3.4,2013-01-11 02:43:00,
2013-01-10 21:49:00,37.4,18.5,32.51,East,100,0.0,0.0,46,0.00,NA,NA,-99.99,wxupload 3.4,2013-01-11 02:49:00,
2013-01-10 21:55:00,37.4,18.5,32.51,East,100,0.0,0.0,46,0.00,NA,NA,-99.99,wxupload 3.4,2013-01-11 02:55:00,
2013-01-10 22:01:00,37.2,18.3,32.51,East,100,0.0,0.0,46,0.00,NA,NA,-99.99,wxupload 3.4,2013-01-11 03:01:00,
2013-01-10 22:07:00,37.0,18.6,32.51,East,100,0.0,0.0,47,0.00,NA,NA,-99.99,wxupload 3.4,2013-01-11 03:07:00,
2013-01-10 22:13:00,37.0,18.6,32.51,East,100,0.0,0.0,47,0.00,NA,NA,-99.99,wxupload 3.4,2013-01-11 03:13:00,
2013-01-10 22:19:00,37.0,19.1,32.51,East,100,0.0,0.0,48,0.00,NA,NA,-99.99,wxupload 3.4,2013-01-11 03:19:00,
2013-01-10 22:25:00,37.0,19.1,32.51,East,100,0.0,0.0,48,0.00,NA,NA,-99.99,wxupload 3.4,2013-01-11 03:25:00,
2013-01-10 22:31:00,37.0,19.1,32.51,East,100,0.0,0.0,48,0.00,NA,NA,-99.99,wxupload 3.4,2013-01-11 03:31:00,
2013-01-10 22:37:00,37.0,19.1,32.51,East,100,0.0,0.0,48,0.00,NA,NA,-99.99,wxupload 3.4,2013-01-11 03:37:00,
2013-01-10 22:43:00,37.0,19.6,32.51,East,100,0.0,0.0,49,0.00,NA,NA,-99.99,wxupload 3.4,2013-01-11 03:43:00,
2013-01-10 22:49:00,36.9,19.5,32.51,East,100,0.0,0.0,49,0.00,NA,NA,-99.99,wxupload 3.4,2013-01-11 03:49:00,
2013-01-10 22:55:00,36.9,19.5,32.51,East,100,0.0,0.0,49,0.00,NA,NA,-99.99,wxupload 3.4,2013-01-11 03:55:00,
2013-01-10 23:01:00,36.9,19.5,32.51,East,100,0.0,0.0,49,0.00,NA,NA,-99.99,wxupload 3.4,2013-01-11 04:01:00,
2013-01-10 23:07:00,36.7,19.3,32.51,East,100,0.0,0.0,49,0.00,NA,NA,-99.99,wxupload 3.4,2013-01-11 04:07:00,
2013-01-10 23:13:00,36.7,19.8,32.51,East,100,0.0,0.0,50,0.00,NA,NA,-99.99,wxupload 3.4,2013-01-11 04:13:00,
2013-01-10 23:19:00,36.7,19.8,32.51,East,100,0.0,0.0,50,0.00,NA,NA,-99.99,wxupload 3.4,2013-01-11 04:19:00,
2013-01-10 23:25:00,36.3,19.4,32.51,East,100,0.0,0.0,50,0.00,NA,NA,-99.99,wxupload 3.4,2013-01-11 04:25:00,
2013-01-10 23:33:00,36.1,19.3,32.51,East,100,0.0,0.0,50,0.00,NA,NA,-99.99,wxupload 3.4,2013-01-11 04:33:00,
2013-01-10 23:39:00,36.1,19.3,32.51,East,100,0.0,0.0,50,0.00,NA,NA,-99.99,wxupload 3.4,2013-01-11 04:39:00,
2013-01-10 23:45:00,36.0,19.1,32.51,East,100,0.0,0.0,50,0.00,NA,NA,-99.99,wxupload 3.4,2013-01-11 04:45:00,
2013-01-10 23:51:00,35.8,18.9,32.51,East,100,0.0,0.0,50,0.00,NA,NA,-99.99,wxupload 3.4,2013-01-11 04:51:00,
2013-01-10 23:57:00,35.8,19.4,32.51,East,100,0.0,0.0,51,0.00,NA,NA,-99.99,wxupload 3.4,2013-01-11 04:57:00,